Left ArrowRight Arrow

Hourly Observations for March 17, 2020

Temp ( °F °C ) Dew Point ( °F °C ) Humidity (%) Winds ( mph kmh ) Pressure ( in mb ) Visibility ( mi km ) Precip ( " mm )
12:53 am 00:53 Clear 23 -5 17 -8.3 78 78 SSE 6 9 30.19 1022 10 16 0.00 0.00
1:53 am 01:53 Clear 28 -2.2 19 -7.2 69 69 SSE 9 15 30.11 1020 10 16 0.00 0.00
2:53 am 02:53 Cloudy 27 -2.8 20 -6.7 75 75 SSE 15 24 30.07 1018 10 16 0.00 0.00
3:53 am 03:53 Partly Cloudy 32 0 18 -7.8 56 56 SSE 15 24 30.01 1016 10 16 0.00 0.00
4:53 am 04:53 Clear 32 0 20 -6.7 61 61 SSE 16 26 29.97 1015 10 16 0.00 0.00
5:53 am 05:53 Clear 33 0.6 22 -5.6 64 64 S 18 30 29.94 1014 10 16 0.00 0.00
6:53 am 06:53 Clear 36 2.2 23 -5 59 59 S 14 22 29.92 1013 10 16 0.00 0.00
7:53 am 07:53 Sunny 28 -2.2 20 -6.7 72 72 SE 10 17 29.93 1014 10 16 0.00 0.00
8:53 am 08:53 Sunny 34 1.1 23 -5 64 64 SE 14 22 29.88 1012 10 16 0.00 0.00
9:53 am 09:53 Sunny 41 5 26 -3.3 55 55 SSE 16 26 29.85 1011 10 16 0.00 0.00
10:53 am 10:53 Sunny 43 6.1 28 -2.2 56 56 SE 13 20 29.82 1010 10 16 0.00 0.00
11:53 am 11:53 Sunny 45 7.2 31 -0.6 58 58 SE 12 19 29.79 1009 10 16 0.00 0.00
12:53 pm 12:53 Sunny 49 9.4 33 0.6 55 55 SE 14 22 29.77 1008 10 16 0.00 0.00
1:53 pm 13:53 Sunny 52 11.1 34 1.1 50 50 SE 10 17 29.72 1007 10 16 0.00 0.00
2:53 pm 14:53 Sunny 49 9.4 35 1.7 59 59 NW 14 22 29.73 1007 10 16 0.00 0.00
3:53 pm 15:53 Sunny 44 6.7 31 -0.6 60 60 NW 14 22 29.74 1007 10 16 0.00 0.00
4:53 pm 16:53 Sunny 48 8.9 32 0 54 54 NW 8 13 29.75 1007 10 16 0.00 0.00
5:53 pm 17:53 Sunny 43 6.1 29 -1.7 58 58 WNW 12 19 29.77 1008 10 16 0.00 0.00
6:53 pm 18:53 Mostly Cloudy 42 5.6 29 -1.7 60 60 WNW 10 17 29.78 1009 10 16 0.00 0.00
7:53 pm 19:53 Mostly Cloudy 42 5.6 27 -2.8 55 55 NNW 15 24 29.84 1010 10 16 0.00 0.00
8:53 pm 20:53 Mostly Clear 40 4.4 28 -2.2 63 63 NNW 16 26 29.85 1011 10 16 0.00 0.00
9:53 pm 21:53 Mostly Clear 40 4.4 27 -2.8 60 60 NNW 15 24 29.85 1011 10 16 0.00 0.00
10:53 pm 22:53 Clear 35 1.7 28 -2.2 76 76 NNW 14 22 29.88 1012 10 16 0.00 0.00
11:53 pm 23:53 Clear 34 1.1 24 -4.4 67 67 NNW 17 28 29.89 1012 10 16 0.00 0.00

Powered by Vaisala Xweather